Tracking 27111 objects as of 28-Mar-2023
HD Live streaming from Space Station
objects crossing your sky now

STARLINK-5073

Track STARLINK-5073 now!
10-day predictions
STARLINK-5073 is classified as:


NORAD ID: 55427
Int'l Code: 2023-014AN
Perigee: 363.8 km
Apogee: 368.6 km
Inclination: 70.0 °
Period: 91.7 minutes
Semi major axis: 6737 km
RCS: Unknown
Launch date: January 31, 2023
Source: United States (US)
Launch site: AIR FORCE WESTERN TEST RANGE (AFWTR)
Your satellite tracking list
Your tracking list is empty




NASA's NSSDC Master Catalog

Two Line Element Set (TLE):
1 55427U 23014AN  23087.05350392  .00011373  00000-0  96180-4 0  9993
2 55427  69.9993 294.0339 0003574 270.6302  89.4484 15.69933761  8891
Source of the keplerian elements: AFSPC